User: anonymous   Login
Location: Bothwell
(42.3833°S, 147.0000°E)
Time: 05:31:35
(UTC+10:00)
Language:

YUBILEINY - Orbit

View from above orbital plane
View from above orbital plane
View from above satellite
View from above satellite

Ground track
Ground track

The orbit data is extracted from the following two-line orbital elements,

1 32953U 08025A   22267.45271205  .00000024  00000-0  10000-3 0  9992
2 32953  82.5013 122.3854 0020087  44.8156 315.4542 12.43113405650631
Epoch (UTC): 24 September 2022 10:51:54
Eccentricity: 0.0020087
inclination: 82.5013°
perigee height: 1477 km
apogee height: 1509 km
right ascension of ascending node: 122.3854°
argument of perigee: 44.8156°
revolutions per day: 12.43113405
mean anomaly at epoch: 315.4542°
orbit number at epoch: 65063

The dashed part of the orbit path shows where the satellite is in the earth's shadow,  

DLR